Погода в Биратнагаре

Непал     26°27′26″N   87°16′48″E
темп.,
°C
ветер,
м/с
пор.,
м/с
влажн.,
%
обл.,
%
осадки,
мм/ч
давл.,
гПа
погр.,
м
18 апреля, вс
вс1823:45+25в36560 0.0 1009129
02:45+24в612640 0.1 1009398
05:45+23в611682 0.2 1010472
08:45+28в77540 0.2 1012860
11:45+33вюв44360 0.3 10091883
14:45+37зюз692143 0.0 10044082
17:45+36зюз69172 0.0 1001887
20:45+29всв47382 0.0 1004132
19 апреля, пн
пн1923:45+25в612530 0.0 1006360
02:45+24всв612580 0.0 1006368
05:45+23в410630 0.0 1006302
08:45+29в67450 0.0 1008938
11:45+35юв25260 0.0 10062549
14:45+38з47120 0.0 10013846
17:45+37з4770 0.0 1000233
20:45+30зсз11100 0.0 100211
20 апреля, вт
вт2023:45+25вюв34450 0.0 100453
02:45+25всв33380 0.0 100335
05:45+24в411390 0.0 1004228
08:45+31в911420 0.0 10071023
11:45+36вюв75270 0.0 10062158
14:45+38в34190 0.0 10023399
17:45+37всв44190 0.0 1001169
20:45+30в4103313 0.0 1003168
21 апреля, ср
ср2123:45+28в4113910 0.0 1004200
02:45+26в4124316 0.0 1004291
05:45+28в714431 0.0 1006475
08:45+32в1112395 0.0 10091078
11:45+37вюв87300 0.0 10071874
14:45+39вюв3424100 0.0 10032456
17:45+39ссв3320100 0.0 100195
20:45+27ссв5942100 0.0 1005207
22 апреля, чт
чт2223:45+27в3439100 0.0 100562
02:45+27всв3536100 0.0 1005125
05:45+26в3639100 0.0 1006129
08:45+33в673492 0.0 1008744
11:45+36в4334100 0.0 10061421
14:45+40юз3617100 0.0 10023244
17:45+27с81538100 0.3 1001248
20:45+27с364518 0.0 1004171